When you browse on this site, cookies collect data to enhance your experience and personalize the content and advertising you see.
Visit our Privacy Policy to learn more. By continuing to use the site, you agree to this use of cookies and data.

Previsão horária em Melbourne

Hoje, 27 Setembro, Domingo

Tempo Temperatura Precipitação Vento Pressão Humidade
00:00 +8°C° 0.3 mm 5 m/s 763 mmHg 82%
01:00 +8°C° 0.3 mm 4 m/s 763 mmHg 85%
02:00 +8°C° 0.3 mm 4 m/s 763 mmHg 86%
03:00 +7°C° 0.3 mm 4 m/s 763 mmHg 87%
04:00 +7°C° 0 mm 4 m/s 764 mmHg 86%
05:00 +7°C° 0.1 mm 4 m/s 764 mmHg 83%
06:00 +8°C° 0.1 mm 3 m/s 765 mmHg 80%
07:00 +8°C° 0.1 mm 3 m/s 766 mmHg 77%
08:00 +9°C° 0 mm 3 m/s 767 mmHg 69%
09:00 +10°C° 0 mm 3 m/s 767 mmHg 61%
10:00 +11°C° 0 mm 3 m/s 768 mmHg 53%
11:00 +12°C° 0 mm 3 m/s 768 mmHg 50%
12:00 +13°C° 0 mm 3 m/s 767 mmHg 48%
13:00 +13°C° 0 mm 3 m/s 767 mmHg 45%
14:00 +13°C° 0 mm 3 m/s 767 mmHg 45%
15:00 +13°C° 0 mm 3 m/s 767 mmHg 46%
16:00 +13°C° 0 mm 3 m/s 767 mmHg 46%
17:00 +11°C° 0 mm 3 m/s 768 mmHg 52%
18:00 +10°C° 0 mm 3 m/s 768 mmHg 58%
19:00 +8°C° 0 mm 2 m/s 769 mmHg 64%
20:00 +8°C° 0 mm 2 m/s 769 mmHg 67%
21:00 +8°C° 0 mm 1 m/s 769 mmHg 71%
22:00 +7°C° 0 mm 1 m/s 770 mmHg 74%
23:00 +7°C° 0 mm 1 m/s 770 mmHg 76%

Amanhã, 28 Setembro, Segunda-feira

Tempo Temperatura Precipitação Vento Pressão Humidade
00:00 +7°C° 0 mm 1 m/s 770 mmHg 77%
01:00 +6°C° 0 mm 1 m/s 770 mmHg 79%
02:00 +6°C° 0 mm 1 m/s 769 mmHg 80%
03:00 +6°C° 0 mm 1 m/s 769 mmHg 81%
04:00 +5°C° 0 mm 1 m/s 769 mmHg 81%
05:00 +6°C° 0 mm 1 m/s 769 mmHg 81%
06:00 +6°C° 0 mm 1 m/s 770 mmHg 80%
07:00 +7°C° 0 mm 1 m/s 770 mmHg 79%
08:00 +9°C° 0 mm 1 m/s 770 mmHg 71%
09:00 +11°C° 0 mm 1 m/s 769 mmHg 63%
10:00 +13°C° 0 mm 1 m/s 769 mmHg 55%
11:00 +14°C° 0 mm 2 m/s 769 mmHg 51%
12:00 +15°C° 0 mm 2 m/s 769 mmHg 48%
13:00 +16°C° 0 mm 2 m/s 768 mmHg 45%
14:00 +16°C° 0 mm 2 m/s 768 mmHg 47%
15:00 +16°C° 0 mm 3 m/s 767 mmHg 48%
16:00 +14°C° 0 mm 3 m/s 767 mmHg 50%
17:00 +13°C° 0 mm 3 m/s 767 mmHg 58%
18:00 +12°C° 0 mm 2 m/s 768 mmHg 65%
19:00 +9°C° 0 mm 2 m/s 768 mmHg 73%
20:00 +9°C° 0 mm 2 m/s 768 mmHg 75%
21:00 +8°C° 0 mm 2 m/s 768 mmHg 77%
22:00 +8°C° 0 mm 1 m/s 769 mmHg 79%
23:00 +8°C° 0 mm 1 m/s 768 mmHg 80%

Depois de amanhã, 29 Setembro, Terça-feira

Tempo Temperatura Precipitação Vento Pressão Humidade
00:00 +7°C° 0 mm 1 m/s 768 mmHg 82%
01:00 +7°C° 0 mm 1 m/s 767 mmHg 83%
02:00 +7°C° 0 mm 1 m/s 767 mmHg 83%
03:00 +7°C° 0 mm 1 m/s 767 mmHg 84%
04:00 +6°C° 0 mm 1 m/s 766 mmHg 84%
05:00 +7°C° 0 mm 1 m/s 767 mmHg 82%
06:00 +7°C° 0 mm 1 m/s 767 mmHg 80%
07:00 +8°C° 0 mm 1 m/s 767 mmHg 78%
08:00 +10°C° 0 mm 2 m/s 767 mmHg 68%
09:00 +14°C° 0 mm 2 m/s 766 mmHg 59%
10:00 +17°C° 0 mm 2 m/s 765 mmHg 49%
11:00 +18°C° 0 mm 3 m/s 765 mmHg 46%
12:00 +19°C° 0 mm 4 m/s 764 mmHg 42%
13:00 +20°C° 0 mm 4 m/s 764 mmHg 39%
14:00 +20°C° 0 mm 4 m/s 763 mmHg 41%
15:00 +20°C° 0 mm 4 m/s 762 mmHg 43%
16:00 +20°C° 0 mm 4 m/s 761 mmHg 45%
17:00 +18°C° 0 mm 4 m/s 761 mmHg 52%
18:00 +17°C° 0 mm 4 m/s 762 mmHg 58%
19:00 +16°C° 0 mm 3 m/s 762 mmHg 65%
20:00 +14°C° 0 mm 3 m/s 761 mmHg 66%
21:00 +14°C° 0 mm 3 m/s 761 mmHg 67%
22:00 +14°C° 0 mm 3 m/s 761 mmHg 67%
23:00 +14°C° 0 mm 3 m/s 760 mmHg 69%

30 Setembro, Quarta-feira

Tempo Temperatura Precipitação Vento Pressão Humidade
00:00 +14°C° 0 mm 3 m/s 760 mmHg 71%
01:00 +14°C° 0 mm 3 m/s 759 mmHg 72%
02:00 +13°C° 0.1 mm 4 m/s 759 mmHg 75%
03:00 +13°C° 0.1 mm 4 m/s 758 mmHg 78%
04:00 +13°C° 0.1 mm 4 m/s 757 mmHg 80%
05:00 +13°C° 0.4 mm 5 m/s 757 mmHg 82%
06:00 +13°C° 0.4 mm 5 m/s 757 mmHg 84%
07:00 +11°C° 0.4 mm 6 m/s 757 mmHg 86%
08:00 +13°C° 0.2 mm 6 m/s 757 mmHg 85%
09:00 +14°C° 0.2 mm 6 m/s 757 mmHg 83%
10:00 +14°C° 0.2 mm 6 m/s 756 mmHg 81%
11:00 +15°C° 0 mm 6 m/s 756 mmHg 78%
12:00 +16°C° 0 mm 5 m/s 756 mmHg 76%
13:00 +16°C° 0 mm 5 m/s 756 mmHg 73%
14:00 +18°C° 0.3 mm 4 m/s 755 mmHg 69%
15:00 +19°C° 0.3 mm 4 m/s 755 mmHg 65%
16:00 +19°C° 0.3 mm 4 m/s 755 mmHg 62%
17:00 +18°C° 0.1 mm 4 m/s 755 mmHg 65%
18:00 +17°C° 0.1 mm 3 m/s 756 mmHg 68%
19:00 +16°C° 0.1 mm 2 m/s 756 mmHg 71%
20:00 +16°C° 0.1 mm 2 m/s 757 mmHg 72%
21:00 +15°C° 0.1 mm 2 m/s 757 mmHg 74%
22:00 +15°C° 0.1 mm 2 m/s 758 mmHg 75%
23:00 +14°C° 0 mm 2 m/s 758 mmHg 77%

1 Outubro, Quinta-feira

Tempo Temperatura Precipitação Vento Pressão Humidade
00:00 +13°C° 0 mm 2 m/s 758 mmHg 80%
01:00 +13°C° 0 mm 2 m/s 758 mmHg 82%
02:00 +12°C° 0 mm 2 m/s 758 mmHg 84%
03:00 +12°C° 0 mm 2 m/s 758 mmHg 86%
04:00 +10°C° 0 mm 2 m/s 758 mmHg 87%
05:00 +12°C° 0 mm 2 m/s 759 mmHg 85%
06:00 +12°C° 0 mm 2 m/s 759 mmHg 83%
07:00 +12°C° 0 mm 2 m/s 759 mmHg 81%
08:00 +14°C° 0 mm 2 m/s 760 mmHg 73%
09:00 +15°C° 0 mm 2 m/s 760 mmHg 65%
10:00 +17°C° 0 mm 2 m/s 760 mmHg 57%
11:00 +18°C° 0 mm 2 m/s 759 mmHg 51%
12:00 +19°C° 0 mm 3 m/s 759 mmHg 46%
13:00 +21°C° 0 mm 3 m/s 759 mmHg 40%
14:00 +21°C° 0 mm 3 m/s 759 mmHg 42%
15:00 +21°C° 0 mm 3 m/s 759 mmHg 45%
16:00 +21°C° 0 mm 3 m/s 758 mmHg 48%
17:00 +19°C° 0 mm 3 m/s 759 mmHg 53%
18:00 +18°C° 0 mm 4 m/s 760 mmHg 59%
19:00 +15°C° 0 mm 4 m/s 760 mmHg 65%
20:00 +14°C° 0 mm 4 m/s 761 mmHg 69%
21:00 +13°C° 0 mm 3 m/s 761 mmHg 73%
22:00 +13°C° 0 mm 3 m/s 762 mmHg 77%
23:00 +12°C° 0 mm 3 m/s 762 mmHg 78%

2 Outubro, Sexta-feira

Tempo Temperatura Precipitação Vento Pressão Humidade
00:00 +12°C° 0 mm 3 m/s 761 mmHg 79%
01:00 +12°C° 0 mm 3 m/s 761 mmHg 80%
02:00 +12°C° 0 mm 3 m/s 761 mmHg 80%
03:00 +12°C° 0 mm 3 m/s 761 mmHg 80%
04:00 +12°C° 0 mm 4 m/s 762 mmHg 80%
05:00 +12°C° 0 mm 4 m/s 762 mmHg 78%
06:00 +13°C° 0 mm 5 m/s 762 mmHg 77%
07:00 +13°C° 0 mm 6 m/s 762 mmHg 75%
08:00 +16°C° 0 mm 6 m/s 762 mmHg 67%
09:00 +18°C° 0 mm 7 m/s 762 mmHg 59%
10:00 +21°C° 0 mm 8 m/s 762 mmHg 51%
11:00 +22°C° 0 mm 8 m/s 762 mmHg 49%
12:00 +23°C° 0 mm 8 m/s 761 mmHg 48%
13:00 +24°C° 0 mm 7 m/s 761 mmHg 46%
14:00 +26°C° 0 mm 7 m/s 761 mmHg 47%
15:00 +26°C° 0 mm 6 m/s 761 mmHg 47%
16:00 +26°C° 0 mm 6 m/s 761 mmHg 48%
17:00 +25°C° 0 mm 5 m/s 761 mmHg 50%
18:00 +23°C° 0 mm 5 m/s 761 mmHg 53%
19:00 +22°C° 0 mm 5 m/s 761 mmHg 56%
20:00 +21°C° 0 mm 5 m/s 761 mmHg 56%
21:00 +21°C° 0 mm 6 m/s 761 mmHg 55%
22:00 +21°C° 0 mm 6 m/s 761 mmHg 55%
23:00 +21°C° 0 mm 6 m/s 761 mmHg 55%
Mostrar mais